Regional Weather Roundup
Issued by NWS

Home | Current Version | Previous Version | Graphics & Text | Print | Product List | Glossary On
Versions: 1 2 3 4 5 6 7 8 9 10 11 12 13 14 15 16 17 18 19 20 21 22 23 24 25 26 27 28 29 30 31 32 33 34 35 36 37 38 39 40 41 42 43 44 45 46 47 48 49 50
000
ASUS43 KMPX 211901
RWRMN
WEATHER ROUNDUP FOR MINNESOTA
NATIONAL WEATHER SERVICE TWIN CITIES/CHANHASSEN MN
200 PM CDT SUN SEP 21 2014


NOTE: "FAIR" INDICATES FEW OR NO CLOUDS BELOW 12,000 FEET WITH NO
SIGNIFICANT WEATHER AND/OR OBSTRUCTIONS TO VISIBILITY. N/A MEANS
CURRENT SKY AND/OR WEATHER CONDITIONS ARE NOT AVAILABLE.

MNZ060>063-068>070-212000-
   Twin Cities Metro

CITY           SKY/WX    TMP DP  RH WIND       PRES   REMARKS
TWIN CITIES    MOSUNNY   63  46  54 NW16G24   30.14S
ST PAUL        MOSUNNY   62  48  60 N16G24    30.14S
CRYSTAL        MOSUNNY   64  46  52 N14G22    30.13F
BLAINE         PTSUNNY   64  50  59 NW12G17   30.14S
LAKEVILLE      MOSUNNY   63  46  55 NW16G23   30.13F
EDEN PRAIRIE   PTSUNNY   65  48  54 NW17      30.13F
SOUTH ST PAUL  MOSUNNY   64  45  51 N13G20    30.13S
LAKE ELMO      FAIR      63  48  59 N13G20    30.14S
$$
MNZ001>005-007-008-013>017-022>024-027-028-212000-
   Northwest Minnesota

CITY           SKY/WX    TMP DP  RH WIND       PRES   REMARKS
BEMIDJI        PTSUNNY   59  50  70 NW9       30.19S
HALLOCK          N/A     61  52  72 NW10      30.21S
ROSEAU         CLOUDY    61  54  77 W10       30.19F
WARROAD        CLOUDY    61  52  72 W6        30.19F
THIEF RVR FALL CLOUDY    57  52  82 W9        30.21F
CROOKSTON      CLOUDY    57  52  82 N6        30.24F
FOSSTON        CLOUDY    55  52  88 CALM      30.22F
DETROIT LAKES  CLOUDY    55  50  82 NW9       30.24S
MOORHEAD       SUNNY     61  54  77 NE9       30.24F
PARK RAPIDS    CLOUDY    62  47  57 NW12      30.19F
MAHNOMEN       CLOUDY    57  50  78 N9        30.22F
$$
MNZ006-009>011-018-025>026-212000-
   North Central Minnesota

CITY           SKY/WX    TMP DP  RH WIND       PRES   REMARKS
BAUDETTE       SUNNY     60  48  64 NW9       30.17F
FLAG ISLAND    SUNNY     57  48  72 N6        30.16F
INTL FALLS     SUNNY     61  43  51 NW7       30.15F
WASKISH        PTSUNNY   63  52  67 CALM      30.18S
BIG FORK       SUNNY     63  46  55 N8        30.17S
LONGVILLE      MOSUNNY   61  46  59 NW5       30.18S
GRAND RAPIDS   MOSUNNY   57  45  62 NW8       30.16F
CRANE LAKE     SUNNY     55  41  58 N7        30.16F
ORR            SUNNY     59  37  44 NW5       30.13S
COOK           SUNNY     59  39  47 W5        30.15S
WALKER         MOCLDY    59  47  64 N7        30.19S
$$
MNZ012-019>021-037-212000-
   Northeast Minnesota

CITY           SKY/WX    TMP DP  RH WIND       PRES   REMARKS
DULUTH         MOSUNNY   61  37  41 N15G21    30.11S
ELY            SUNNY     55  37  50 NW13      30.13S
HIBBING        SUNNY     63  40  42 N14       30.14S
EVELETH        SUNNY     59  36  41 NW9G18    30.14S
DULUTH HARBOR  SUNNY     55  46  71 E5        30.13S
TWO HARBORS    SUNNY     61  39  44 N8        30.09S
SILVER BAY     SUNNY     59  43  55 N6        30.08F
GRAND MARAIS     N/A     51  43  74 SW13      30.08S
G MARAIS ARPRT SUNNY     54  36  50 NW12G18   30.08S
$$
MNZ029>031-032-039>041-046>048-054>057-064-212000-
   West Central Minnesota

CITY           SKY/WX    TMP DP  RH WIND       PRES   REMARKS
FERGUS FALLS   CLOUDY    59  48  67 N12G17    30.24S
WHEATON        MOSUNNY   63  48  59 NW14      30.25S
MORRIS         MOSUNNY   64  52  63 NW14      30.22S
ALEXANDRIA     CLOUDY    59  49  69 N12       30.23R
ELBOW LAKE     CLOUDY    59  50  73 NW12      30.23S
WADENA         CLOUDY    57  48  72 N9        30.20F
GLENWOOD       PTSUNNY   59  50  72 NW14      30.22S
APPLETON       MOSUNNY   66  48  52 NW15      30.22S
BENSON         PTSUNNY   63  50  63 N15G22    30.22S
ORTONVILLE     PTSUNNY   64  48  55 N15       30.23S
MADISON        MOSUNNY   68  52  56 N14G21    30.23S
WILLMAR        FAIR      63  48  59 N14       30.22R
$$
MNZ033>034-036-042>043-049>051-058-059-212000-
   Central Minnesota

CITY           SKY/WX    TMP DP  RH WIND       PRES   REMARKS
ST CLOUD       PTSUNNY   66  49  54 N9        30.16F
SAUK CENTRE    CLOUDY    60  49  65 N12       30.20S
PAYNESVILLE    PTSUNNY   59  49  67 W10G16    30.19F
AITKIN         MOSUNNY   64  48  55 NW7G17    30.15S
PINE RIVER     PTSUNNY   63  48  59 N9        30.21R
BRAINERD       SUNNY     62  46  55 N14G21    30.18R
STAPLES        PTSUNNY   63  48  59 NW10G16   30.19S
LONG PRAIRIE   PTSUNNY   61  48  63 NW13G20   30.20S
LITTLE FALLS   PTSUNNY   63  45  51 NW7       30.18R
LITCHFIELD     CLOUDY    63  52  67 N14G20    30.19S
BUFFALO        PTSUNNY   63  47  57 NW10      30.17S
MAPLE LAKE     MOSUNNY   64  51  61 NW9G16    30.17S
$$
MNZ037-044-045-052-053-212000-
   East Central Minnesota

CITY           SKY/WX    TMP DP  RH WIND       PRES   REMARKS
PRINCETON      MOSUNNY   64  48  55 NW10      30.15F
MORA           MOSUNNY   61  45  55 N10       30.17S
CAMBRIDGE      MOSUNNY   64  48  55 N13       30.13F
RUSH CITY      MOSUNNY   62  45  55 NW13      30.14S
MOOSE LAKE     SUNNY     61  45  55 N6G18     30.12S
HINCKLEY       FAIR      63  46  55 NW13G18   30.14S
CLOQUET        SUNNY     61  41  48 NW10G20   30.12S
MCGREGOR       MOSUNNY   61  45  55 N10G18    30.16S
$$
MNZ071>073-080-081-089-090-097-098-212000-
   Southwest Minnesota

CITY           SKY/WX    TMP DP  RH WIND       PRES   REMARKS
MONTEVIDEO     PTSUNNY   64  50  59 N17       30.23S
GRANITE FALLS  PTSUNNY   64  51  63 NW13G18   30.23S
CANBY          MOSUNNY   65  50  57 N8G18     30.24S
MARSHALL       PTSUNNY   64  46  52 N17       30.21S
REDWOOD FALLS  PTSUNNY   63  50  62 N9        30.20S
OLIVIA         CLOUDY    61  48  63 N10       30.19S
PIPESTONE      MOSUNNY   64  45  48 N9G18     30.23F
WINDOM         CLOUDY    64  48  55 N16       30.20F
WORTHINGTON    PTSUNNY   64  46  52 N16G24    30.22F
JACKSON        CLOUDY    64  46  52 NW18G24   30.20F
TRACY          PTSUNNY   65  49  55 N15G21    30.22S
SLAYTON        MOSUNNY   63  45  52 N15       30.23S
$$
MNZ065>067-074>077-082>085-091>093-212000-
   South Central Minnesota

CITY           SKY/WX    TMP DP  RH WIND       PRES   REMARKS
MANKATO        PTSUNNY   64  45  48 N20       30.16S
NEW ULM        PTSUNNY   63  52  67 NW14      30.18S
ST JAMES       CLOUDY    64  48  55 NW12      30.19F
FAIRMONT       CLOUDY    64  45  48 NW14      30.18S
GLENCOE        CLOUDY    63  47  57 NW12G17   30.16F
FARIBAULT      PTSUNNY   64  45  48 NW10G18   30.15S
OWATONNA       PTSUNNY   61  46  59 N16       30.15R
WASECA         PTSUNNY   61  41  48 NW10G21   30.17S
ALBERT LEA     PTSUNNY   63  46  55 N14G20    30.14F
$$
MNZ078>079-086>088-094>096-212000-
   Southeast Minnesota

CITY           SKY/WX    TMP DP  RH WIND       PRES   REMARKS
ROCHESTER      PTSUNNY   61  47  59 NW14G23   30.13S
RED WING       PTSUNNY   64  46  52 N6G20     30.10S
STANTON        PTSUNNY   63  47  55 N14G20    30.12S
DODGE CENTER   PTSUNNY   61  48  63 NW14G20   30.13R
WINONA         PTSUNNY   63  48  59 NW17      30.08S
AUSTIN         MOSUNNY   63  48  59 NW14G21   30.13S
PRESTON        PTSUNNY   61  51  71 N15G24    30.10F
$$
ABBREVIATIONS USED IN REMARKS
   TC - TEMPERATURES IN CELSIUS
  WCI - WIND CHILL INDEX
   HX - HEAT INDEX
  VSB - VISIBILITY
$$


USA.gov is the U.S. government's official web portal to all federal, state and local government web resources and services.